TimeEST,TemperatureF,Dew PointF,Humidity,Sea Level PressureIn,VisibilityMPH,Wind Direction,Wind SpeedMPH,Gust SpeedMPH,PrecipitationIn,Events,Conditions,WindDirDegrees,DateUTC
12:22 AM,53.6,46.4,77,29.93,10.0,NNE,5.8,-,N/A,,Overcast,30,2012-11-07 05:22:00
12:35 AM,53.6,46.4,77,29.93,10.0,NNE,6.9,-,N/A,,Overcast,20,2012-11-07 05:35:00
12:53 AM,54.0,46.0,75,29.95,10.0,North,6.9,-,N/A,,Overcast,10,2012-11-07 05:53:00
1:53 AM,53.1,45.0,74,29.96,10.0,North,4.6,-,N/A,,Overcast,360,2012-11-07 06:53:00
2:46 AM,51.8,44.6,76,29.93,10.0,Calm,Calm,-,N/A,,Overcast,0,2012-11-07 07:46:00
2:53 AM,52.0,44.1,74,29.96,10.0,Variable,3.5,-,N/A,,Overcast,0,2012-11-07 07:53:00
3:45 AM,48.2,41.0,76,29.94,10.0,Variable,3.5,-,N/A,,Scattered Clouds,0,2012-11-07 08:45:00
3:53 AM,46.9,41.0,80,29.96,10.0,North,5.8,-,N/A,,Scattered Clouds,360,2012-11-07 08:53:00
4:53 AM,48.0,41.0,77,29.97,10.0,Calm,Calm,-,N/A,,Overcast,0,2012-11-07 09:53:00
5:53 AM,48.9,39.9,71,29.97,10.0,Calm,Calm,-,N/A,,Overcast,0,2012-11-07 10:53:00
6:53 AM,46.9,41.0,80,30.00,10.0,Calm,Calm,-,N/A,,Overcast,0,2012-11-07 11:53:00
7:53 AM,48.9,43.0,80,30.01,10.0,Calm,Calm,-,N/A,,Scattered Clouds,0,2012-11-07 12:53:00
8:53 AM,54.0,41.0,62,30.01,10.0,Calm,Calm,-,N/A,,Clear,0,2012-11-07 13:53:00
9:53 AM,57.0,39.9,53,30.01,10.0,Variable,4.6,-,N/A,,Clear,0,2012-11-07 14:53:00
10:33 AM,59.0,42.8,55,29.98,10.0,Variable,5.8,-,N/A,,Mostly Cloudy,0,2012-11-07 15:33:00
10:53 AM,57.9,42.1,56,30.01,10.0,Calm,Calm,-,N/A,,Mostly Cloudy,0,2012-11-07 15:53:00
11:06 AM,59.0,42.8,55,29.98,10.0,Calm,Calm,-,N/A,,Mostly Cloudy,0,2012-11-07 16:06:00
11:53 AM,60.1,43.0,53,29.98,10.0,NW,5.8,-,N/A,,Mostly Cloudy,320,2012-11-07 16:53:00
12:53 PM,63.0,44.1,50,29.94,10.0,Variable,4.6,-,N/A,,Overcast,0,2012-11-07 17:53:00
1:53 PM,63.0,43.0,48,29.91,10.0,Variable,3.5,-,N/A,,Mostly Cloudy,0,2012-11-07 18:53:00
2:53 PM,66.9,41.0,39,29.89,10.0,Variable,3.5,-,N/A,,Overcast,0,2012-11-07 19:53:00
3:53 PM,62.1,39.0,43,29.90,10.0,Variable,6.9,-,N/A,,Scattered Clouds,0,2012-11-07 20:53:00
4:53 PM,61.0,39.0,44,29.93,10.0,Variable,4.6,-,N/A,,Overcast,0,2012-11-07 21:53:00
6:53 PM,55.9,37.9,51,29.99,10.0,Calm,Calm,-,N/A,,Overcast,0,2012-11-07 23:53:00
7:53 PM,55.0,37.9,53,30.00,10.0,Calm,Calm,-,N/A,,Overcast,0,2012-11-08 00:53:00
8:53 PM,48.9,39.0,69,30.04,10.0,Calm,Calm,-,N/A,,Clear,0,2012-11-08 01:53:00
9:53 PM,46.0,37.9,73,30.06,10.0,Calm,Calm,-,N/A,,Clear,0,2012-11-08 02:53:00
10:53 PM,43.0,37.0,80,30.07,10.0,Calm,Calm,-,N/A,,Clear,0,2012-11-08 03:53:00
11:53 PM,41.0,37.0,86,30.07,8.0,Calm,Calm,-,N/A,,Clear,0,2012-11-08 04:53:00